Weather Roundup
Issued by NWS Springfield, MO

Home | Current Version | Previous Version | Text Only | Print | Product List | Glossary On
Versions: 1 2 3 4 5 6 7 8 9 10 11 12 13 14 15 16 17 18 19 20 21 22 23 24 25 26 27 28 29 30 31 32 33 34 35 36 37 38 39 40 41 42 43 44 45 46 47 48 49 50
000
NZUS99 KSGF 011257
HRRSGF

HOURLY WEATHER
NATIONAL WEATHER SERVICE SPRINGFIELD MO
800 AM CDT SAT OCT 01 2016

......SGF CWA......

CITY           SKY/WX    TMP DP  RH WIND       PRES   REMARKS
SPRINGFIELD    PTCLDY    53  50  89 CALM      30.12R
JOPLIN         CLEAR     50  50 100 CALM      30.12R
ROLLA          CLOUDY    57  56  96 W7        30.09R
BRANSON        CLEAR     55  54  94 SW3       30.13R

......SURROUNDING SGF CWA......

CITY           SKY/WX    TMP DP  RH WIND       PRES   REMARKS
CHANUTE        CLEAR     50  49  96 CALM      30.12R
PARSONS        PTCLDY    49  47  93 CALM      30.13R
COFFEYVILLE    PTCLDY    51  51 100 CALM      30.12R
EMPORIA        PTCLDY    50  50 100 W5        30.13R
HARRISON AR    CLEAR     56  53  90 W5        30.13R

......KANSAS AND MISSOURI......

CITY           SKY/WX    TMP DP  RH WIND       PRES   REMARKS
KANSAS CTY INT MOCLDY    56  53  90 CALM      30.13S
SEDALIA        CLOUDY    57  55  93 CALM      30.12S
ST JOSEPH      CLOUDY    57  55  93 CALM      30.13S
ST LOUIS       CLOUDY    63  59  87 NW6       30.06R
WICHITA        CLOUDY    57  51  80 E3        30.11S
TOPEKA         PTCLDY    51  49  92 CALM      30.14R FOG
OLATHE         CLEAR     52  51  97 CALM      30.13S

......TENNESSEE......

CITY           SKY/WX    TMP DP  RH WIND       PRES   REMARKS
MEMPHIS        NOT AVBL
NASHVILLE      MOSUNNY   59  55  87 CALM      30.08R

......ARKANSAS.......

CITY           SKY/WX    TMP DP  RH WIND       PRES   REMARKS
FAYETTEVILLE   CLEAR     49  49 100 CALM      30.14R
FT SMITH       PTCLDY    57  53  86 CALM      30.11R
LITTLE ROCK    MOSUNNY   59  59 100 CALM      30.11R

......OKLAHOMA.......

CITY           SKY/WX    TMP DP  RH WIND       PRES   REMARKS
TULSA          CLOUDY    54  52  93 NW3       30.11R
PONCA CITY     PTCLDY    53  50  89 CALM      30.10S
MCALESTER      PTCLDY    57  53  86 CALM      30.11S
OKLAHOMA CITY  MOCLDY    59  55  87 CALM      30.12R

......IOWA............

CITY           SKY/WX    TMP DP  RH WIND       PRES   REMARKS
DES MOINES     NOT AVBL
QUAD CITIES    CLOUDY    61  58  90 NW6       30.05S

......ILLINOIS........

CITY           SKY/WX    TMP DP  RH WIND       PRES   REMARKS
QUINCY         NOT AVBL
CHICAGO        CLOUDY    60  56  86 N8        30.01S




USA.gov is the U.S. government's official web portal to all federal, state and local government web resources and services.